Time,TemperatureF,DewpointF,PressureIn,WindDirection,WindDirectionDegrees,WindSpeedMPH,WindSpeedGustMPH,Humidity,HourlyPrecipIn,Conditions,Clouds,dailyrainin,SoftwareType,DateUTC
2013-08-09 00:00:00,62.6,51.9,29.88,SE,144,0.0,0.0,68,0.00,CLR,,0.00,WeatherDisplay:10.37,2013-08-09 05:00:00,
2013-08-09 00:05:00,62.6,52.3,29.88,SE,144,0.0,0.0,69,0.00,CLR,,0.00,WeatherDisplay:10.37,2013-08-09 05:05:00,
2013-08-09 00:10:00,62.4,52.5,29.88,SE,144,0.0,0.0,70,0.00,CLR,,0.00,WeatherDisplay:10.37,2013-08-09 05:10:00,
2013-08-09 00:15:00,62.4,53.3,29.88,SE,144,0.0,0.0,72,0.00,CLR,,0.00,WeatherDisplay:10.37,2013-08-09 05:15:00,
2013-08-09 00:20:00,62.4,53.3,29.88,SE,144,0.0,0.0,72,0.00,CLR,,0.00,WeatherDisplay:10.37,2013-08-09 05:20:00,
2013-08-09 00:25:00,62.3,53.2,29.88,SE,144,0.0,0.0,72,0.00,CLR,,0.00,WeatherDisplay:10.37,2013-08-09 05:25:00,
2013-08-09 00:30:00,62.1,53.3,29.88,SE,144,0.0,0.0,73,0.00,CLR,,0.00,WeatherDisplay:10.37,2013-08-09 05:30:00,
2013-08-09 00:35:00,62.0,53.2,29.88,SE,144,0.0,0.0,73,0.00,CLR,,0.00,WeatherDisplay:10.37,2013-08-09 05:35:00,
2013-08-09 00:40:00,61.8,53.1,29.88,SE,144,0.0,0.0,73,0.00,CLR,,0.00,WeatherDisplay:10.37,2013-08-09 05:40:00,
2013-08-09 00:45:00,61.8,53.0,29.88,SE,144,0.0,0.0,73,0.00,CLR,,0.00,WeatherDisplay:10.37,2013-08-09 05:45:00,
2013-08-09 00:50:00,61.6,53.2,29.88,SE,144,0.0,0.0,74,0.00,CLR,,0.00,WeatherDisplay:10.37,2013-08-09 05:50:00,
2013-08-09 00:55:00,61.5,53.5,29.88,SE,144,0.0,0.0,75,0.00,CLR,,0.00,WeatherDisplay:10.37,2013-08-09 05:55:00,
2013-08-09 01:00:00,61.3,53.3,29.88,SE,144,0.0,0.0,75,0.00,CLR,,0.00,WeatherDisplay:10.37,2013-08-09 06:00:00,
2013-08-09 01:05:00,61.2,52.5,29.87,SE,144,0.0,0.0,73,0.00,CLR,,0.00,WeatherDisplay:10.37,2013-08-09 06:05:00,
2013-08-09 01:10:00,61.2,52.5,29.87,SE,144,0.0,0.0,73,0.00,CLR,,0.00,WeatherDisplay:10.37,2013-08-09 06:10:00,
2013-08-09 01:15:00,61.3,52.2,29.87,SE,144,0.0,0.0,72,0.00,CLR,,0.00,WeatherDisplay:10.37,2013-08-09 06:15:00,
2013-08-09 01:20:00,61.5,52.4,29.87,SSE,147,1.0,4.0,72,0.00,CLR,,0.00,WeatherDisplay:10.37,2013-08-09 06:20:00,
2013-08-09 01:25:00,61.5,52.4,29.87,SSE,151,0.0,3.0,72,0.00,CLR,,0.00,WeatherDisplay:10.37,2013-08-09 06:25:00,
2013-08-09 01:30:00,61.6,52.5,29.87,SSE,156,0.0,0.0,72,0.00,CLR,,0.00,WeatherDisplay:10.37,2013-08-09 06:30:00,
2013-08-09 01:35:00,61.6,52.8,29.87,SSE,156,0.0,2.0,73,0.00,CLR,,0.00,WeatherDisplay:10.37,2013-08-09 06:35:00,
2013-08-09 01:40:00,61.5,52.4,29.87,SSE,156,0.0,1.0,72,0.00,CLR,,0.00,WeatherDisplay:10.37,2013-08-09 06:40:00,
2013-08-09 01:45:00,61.5,52.4,29.87,SSE,157,0.0,0.0,72,0.00,CLR,,0.00,WeatherDisplay:10.37,2013-08-09 06:45:00,
2013-08-09 01:50:00,61.3,52.6,29.87,SSE,157,0.0,0.0,73,0.00,CLR,,0.00,WeatherDisplay:10.37,2013-08-09 06:50:00,
2013-08-09 01:55:00,61.2,52.8,29.87,SSE,157,0.0,0.0,74,0.00,CLR,,0.00,WeatherDisplay:10.37,2013-08-09 06:55:00,
2013-08-09 02:00:00,61.0,52.3,29.87,SSE,157,0.0,0.0,73,0.00,CLR,,0.00,WeatherDisplay:10.37,2013-08-09 07:00:00,
2013-08-09 02:05:00,60.9,52.6,29.86,SSE,157,0.0,0.0,74,0.00,CLR,,0.00,WeatherDisplay:10.37,2013-08-09 07:05:00,
2013-08-09 02:10:00,60.9,52.9,29.86,SSE,157,0.0,5.0,75,0.00,CLR,,0.00,WeatherDisplay:10.37,2013-08-09 07:10:00,
2013-08-09 02:15:00,60.7,52.4,29.86,SSE,157,0.0,0.0,74,0.00,CLR,,0.00,WeatherDisplay:10.37,2013-08-09 07:15:00,
2013-08-09 02:20:00,60.7,52.7,29.86,SSE,157,0.0,0.0,75,0.00,CLR,,0.00,WeatherDisplay:10.37,2013-08-09 07:20:00,
2013-08-09 02:30:00,60.4,52.1,29.86,SSE,157,0.0,0.0,74,0.00,CLR,,0.00,WeatherDisplay:10.37,2013-08-09 07:30:00,
2013-08-09 02:35:00,60.4,52.4,29.86,SSE,157,0.0,0.0,75,0.00,CLR,,0.00,WeatherDisplay:10.37,2013-08-09 07:35:00,
2013-08-09 02:40:00,60.4,52.4,29.86,SSE,157,0.0,0.0,75,0.00,CLR,,0.00,WeatherDisplay:10.37,2013-08-09 07:40:00,
2013-08-09 02:45:00,60.4,52.4,29.86,SSE,157,0.0,0.0,75,0.00,CLR,,0.00,WeatherDisplay:10.37,2013-08-09 07:45:00,
2013-08-09 02:50:00,60.2,52.6,29.86,SSE,157,0.0,0.0,76,0.00,CLR,,0.00,WeatherDisplay:10.37,2013-08-09 07:50:00,
2013-08-09 02:55:00,60.4,52.8,29.86,SSE,157,0.0,0.0,76,0.00,CLR,,0.00,WeatherDisplay:10.37,2013-08-09 07:55:00,
2013-08-09 03:00:00,60.5,52.9,29.86,SSE,157,0.0,0.0,76,0.00,CLR,,0.00,WeatherDisplay:10.37,2013-08-09 08:00:00,
2013-08-09 03:05:00,60.7,53.1,29.86,SSE,157,0.0,0.0,76,0.00,CLR,,0.00,WeatherDisplay:10.37,2013-08-09 08:05:00,
2013-08-09 03:10:00,60.9,53.3,29.86,SSE,157,0.0,0.0,76,0.00,CLR,,0.00,WeatherDisplay:10.37,2013-08-09 08:10:00,
2013-08-09 03:15:00,60.8,53.2,29.86,SSE,157,0.0,0.0,76,0.00,CLR,,0.00,WeatherDisplay:10.37,2013-08-09 08:15:00,
2013-08-09 03:20:00,60.8,53.1,29.86,SSE,157,0.0,0.0,76,0.00,CLR,,0.00,WeatherDisplay:10.37,2013-08-09 08:20:00,
2013-08-09 03:25:00,60.9,52.6,29.86,SSE,157,0.0,0.0,74,0.00,CLR,,0.00,WeatherDisplay:10.37,2013-08-09 08:25:00,
2013-08-09 03:30:00,60.8,52.8,29.86,SSE,157,0.0,0.0,75,0.00,CLR,,0.00,WeatherDisplay:10.37,2013-08-09 08:30:00,
2013-08-09 03:35:00,60.5,51.8,29.86,SSE,157,0.0,0.0,73,0.00,CLR,,0.00,WeatherDisplay:10.37,2013-08-09 08:35:00,
2013-08-09 03:40:00,60.4,51.7,29.86,SSE,157,0.0,0.0,73,0.00,CLR,,0.00,WeatherDisplay:10.37,2013-08-09 08:40:00,
2013-08-09 03:45:00,60.1,51.4,29.86,SSE,157,0.0,0.0,73,0.00,CLR,,0.00,WeatherDisplay:10.37,2013-08-09 08:45:00,
2013-08-09 03:50:00,59.9,52.0,29.86,SSE,157,0.0,0.0,75,0.00,CLR,,0.00,WeatherDisplay:10.37,2013-08-09 08:50:00,
2013-08-09 03:55:00,59.8,51.9,29.86,SSE,157,0.0,0.0,75,0.00,CLR,,0.00,WeatherDisplay:10.37,2013-08-09 08:55:00,
2013-08-09 04:00:00,59.6,50.9,29.86,SSE,157,0.0,0.0,73,0.00,CLR,,0.00,WeatherDisplay:10.37,2013-08-09 09:00:00,
2013-08-09 04:05:00,59.6,51.7,29.86,SSE,157,0.0,0.0,75,0.00,CLR,,0.00,WeatherDisplay:10.37,2013-08-09 09:05:00,
2013-08-09 04:10:00,59.6,51.3,29.86,SSE,157,0.0,0.0,74,0.00,CLR,,0.00,WeatherDisplay:10.37,2013-08-09 09:10:00,
2013-08-09 04:15:00,59.5,51.6,29.86,SSE,157,0.0,0.0,75,0.00,CLR,,0.00,WeatherDisplay:10.37,2013-08-09 09:15:00,
2013-08-09 04:20:00,59.5,51.6,29.86,SSE,157,0.0,0.0,75,0.00,CLR,,0.00,WeatherDisplay:10.37,2013-08-09 09:20:00,
2013-08-09 04:25:00,59.3,51.7,29.86,SSE,157,0.0,0.0,76,0.00,CLR,,0.00,WeatherDisplay:10.37,2013-08-09 09:25:00,
2013-08-09 04:30:00,59.2,51.6,29.86,SSE,157,0.0,0.0,76,0.00,CLR,,0.00,WeatherDisplay:10.37,2013-08-09 09:30:00,
2013-08-09 04:35:00,59.0,51.8,29.86,SSE,157,0.0,0.0,77,0.00,CLR,,0.00,WeatherDisplay:10.37,2013-08-09 09:35:00,
2013-08-09 04:40:00,58.9,51.7,29.86,SSE,157,0.0,0.0,77,0.00,CLR,,0.00,WeatherDisplay:10.37,2013-08-09 09:40:00,
2013-08-09 04:45:00,58.7,51.9,29.86,SSE,157,0.0,0.0,78,0.00,CLR,,0.00,WeatherDisplay:10.37,2013-08-09 09:45:00,
2013-08-09 04:50:00,58.6,52.1,29.86,SSE,157,0.0,0.0,79,0.00,CLR,,0.00,WeatherDisplay:10.37,2013-08-09 09:50:00,
2013-08-09 04:55:00,58.4,51.9,29.86,SSE,157,0.0,0.0,79,0.00,CLR,,0.00,WeatherDisplay:10.37,2013-08-09 09:55:00,
2013-08-09 05:00:00,58.4,52.3,29.86,SSE,157,0.0,0.0,80,0.00,CLR,,0.00,WeatherDisplay:10.37,2013-08-09 10:00:00,
2013-08-09 05:05:00,58.3,52.5,29.86,SSE,157,0.0,0.0,81,0.00,CLR,,0.00,WeatherDisplay:10.37,2013-08-09 10:05:00,
2013-08-09 05:10:00,58.1,52.3,29.86,SSE,157,0.0,0.0,81,0.00,CLR,,0.00,WeatherDisplay:10.37,2013-08-09 10:10:00,
2013-08-09 05:15:00,58.0,52.2,29.86,SSE,157,0.0,0.0,81,0.00,CLR,,0.00,WeatherDisplay:10.37,2013-08-09 10:15:00,
2013-08-09 05:20:00,58.0,52.5,29.87,SSE,157,0.0,0.0,82,0.00,CLR,,0.00,WeatherDisplay:10.37,2013-08-09 10:20:00,
2013-08-09 05:25:00,57.8,52.3,29.87,SSE,157,0.0,0.0,82,0.00,CLR,,0.00,WeatherDisplay:10.37,2013-08-09 10:25:00,
2013-08-09 05:30:00,57.8,52.7,29.87,SSE,157,0.0,0.0,83,0.00,CLR,,0.00,WeatherDisplay:10.37,2013-08-09 10:30:00,
2013-08-09 05:35:00,57.8,53.0,29.87,SSE,157,0.0,0.0,84,0.00,CLR,,0.00,WeatherDisplay:10.37,2013-08-09 10:35:00,
2013-08-09 05:40:00,58.0,53.5,29.87,SSE,157,0.0,0.0,85,0.00,CLR,,0.00,WeatherDisplay:10.37,2013-08-09 10:40:00,
2013-08-09 05:45:00,58.0,53.2,29.87,SSE,157,0.0,0.0,84,0.00,CLR,,0.00,WeatherDisplay:10.37,2013-08-09 10:45:00,
2013-08-09 05:50:00,58.1,53.3,29.87,SSE,157,0.0,0.0,84,0.00,CLR,,0.00,WeatherDisplay:10.37,2013-08-09 10:50:00,
2013-08-09 05:55:00,58.3,53.8,29.87,SSE,157,0.0,0.0,85,0.00,CLR,,0.00,WeatherDisplay:10.37,2013-08-09 10:55:00,
2013-08-09 06:00:00,58.5,54.0,29.87,SSE,157,0.0,0.0,85,0.00,CLR,,0.00,WeatherDisplay:10.37,2013-08-09 11:00:00,
2013-08-09 06:05:00,58.6,53.8,29.87,SSE,157,0.0,0.0,84,0.00,CLR,,0.00,WeatherDisplay:10.37,2013-08-09 11:05:00,
2013-08-09 06:10:00,58.7,54.2,29.87,SSE,157,0.0,0.0,85,0.00,CLR,,0.00,WeatherDisplay:10.37,2013-08-09 11:10:00,
2013-08-09 06:15:00,58.9,54.4,29.87,SSE,157,0.0,0.0,85,0.00,CLR,,0.00,WeatherDisplay:10.37,2013-08-09 11:15:00,
2013-08-09 06:20:00,58.9,54.1,29.87,SSE,157,0.0,0.0,84,0.00,CLR,,0.00,WeatherDisplay:10.37,2013-08-09 11:20:00,
2013-08-09 06:25:00,59.0,54.2,29.87,SSE,157,0.0,0.0,84,0.00,CLR,,0.00,WeatherDisplay:10.37,2013-08-09 11:25:00,
2013-08-09 06:30:00,59.0,54.2,29.87,SSE,157,0.0,0.0,84,0.00,CLR,,0.00,WeatherDisplay:10.37,2013-08-09 11:30:00,
2013-08-09 06:35:00,59.2,54.4,29.87,SSE,157,0.0,0.0,84,0.00,CLR,,0.00,WeatherDisplay:10.37,2013-08-09 11:35:00,
2013-08-09 06:40:00,59.2,54.4,29.87,SSE,157,0.0,0.0,84,0.00,CLR,,0.00,WeatherDisplay:10.37,2013-08-09 11:40:00,
2013-08-09 06:45:00,59.3,54.8,29.87,SSE,157,0.0,0.0,85,0.00,CLR,,0.00,WeatherDisplay:10.37,2013-08-09 11:45:00,
2013-08-09 06:50:00,59.5,55.0,29.87,SSE,157,0.0,0.0,85,0.00,CLR,,0.00,WeatherDisplay:10.37,2013-08-09 11:50:00,
2013-08-09 06:55:00,59.8,56.0,29.87,SSE,157,0.0,0.0,87,0.00,CLR,,0.00,WeatherDisplay:10.37,2013-08-09 11:55:00,
2013-08-09 07:00:00,60.2,56.0,29.87,SSE,157,0.0,0.0,86,0.00,CLR,,0.00,WeatherDisplay:10.37,2013-08-09 12:00:00,
2013-08-09 07:05:00,60.9,56.3,29.87,SSE,157,0.0,0.0,85,0.00,CLR,,0.00,WeatherDisplay:10.37,2013-08-09 12:05:00,
2013-08-09 07:10:00,61.5,56.9,29.87,SSE,157,0.0,0.0,85,0.00,CLR,,0.00,WeatherDisplay:10.37,2013-08-09 12:10:00,
2013-08-09 07:15:00,62.0,57.1,29.87,SSE,157,0.0,0.0,84,0.00,CLR,,0.00,WeatherDisplay:10.37,2013-08-09 12:15:00,
2013-08-09 07:20:00,62.3,57.4,29.87,SSE,157,0.0,0.0,84,0.00,CLR,,0.00,WeatherDisplay:10.37,2013-08-09 12:20:00,
2013-08-09 07:25:00,62.6,57.4,29.87,SSE,157,0.0,0.0,83,0.00,CLR,,0.00,WeatherDisplay:10.37,2013-08-09 12:25:00,
2013-08-09 07:30:00,62.8,57.2,29.87,SSE,158,0.0,0.0,82,0.00,CLR,,0.00,WeatherDisplay:10.37,2013-08-09 12:30:00,
2013-08-09 07:35:00,63.1,57.5,29.88,SSE,159,0.0,0.0,82,0.00,CLR,,0.00,WeatherDisplay:10.37,2013-08-09 12:35:00,
2013-08-09 07:40:00,63.4,57.5,29.88,SSE,159,0.0,0.0,81,0.00,CLR,,0.00,WeatherDisplay:10.37,2013-08-09 12:40:00,
2013-08-09 07:45:00,63.7,58.1,29.88,SSE,159,0.0,0.0,82,0.00,CLR,,0.00,WeatherDisplay:10.37,2013-08-09 12:45:00,
2013-08-09 07:50:00,63.9,57.3,29.87,SSE,159,0.0,0.0,79,0.00,CLR,,0.00,WeatherDisplay:10.37,2013-08-09 12:50:00,
2013-08-09 07:55:00,64.2,57.5,29.87,SSE,159,0.0,0.0,79,0.00,CLR,,0.00,WeatherDisplay:10.37,2013-08-09 12:55:00,
2013-08-09 08:00:00,64.3,57.6,29.87,SSE,159,0.0,0.0,79,0.00,CLR,,0.00,WeatherDisplay:10.37,2013-08-09 13:00:00,
2013-08-09 08:05:00,64.7,58.0,29.87,SSE,159,0.0,0.0,79,0.00,CLR,,0.00,WeatherDisplay:10.37,2013-08-09 13:05:00,
2013-08-09 08:10:00,64.8,58.1,29.87,SSE,159,0.0,0.0,79,0.00,CLR,,0.00,WeatherDisplay:10.37,2013-08-09 13:10:00,
2013-08-09 08:15:00,65.0,58.3,29.87,SSE,159,0.0,0.0,79,0.00,CLR,,0.00,WeatherDisplay:10.37,2013-08-09 13:15:00,
2013-08-09 08:20:00,65.2,58.5,29.87,SSE,159,0.0,0.0,79,0.00,CLR,,0.00,WeatherDisplay:10.37,2013-08-09 13:20:00,
2013-08-09 08:25:00,65.5,58.8,29.87,SSE,159,0.0,0.0,79,0.00,CLR,,0.00,WeatherDisplay:10.37,2013-08-09 13:25:00,
2013-08-09 08:35:00,66.3,59.2,29.86,SSE,159,0.0,0.0,78,0.00,CLR,,0.00,WeatherDisplay:10.37,2013-08-09 13:35:00,
2013-08-09 08:40:00,66.8,59.7,29.86,SSE,159,0.0,0.0,78,0.00,CLR,,0.00,WeatherDisplay:10.37,2013-08-09 13:40:00,
2013-08-09 08:45:00,67.3,60.6,29.86,SSE,159,0.0,0.0,79,0.00,CLR,,0.00,WeatherDisplay:10.37,2013-08-09 13:45:00,
2013-08-09 08:50:00,67.8,60.7,29.86,SSE,159,0.0,0.0,78,0.00,CLR,,0.00,WeatherDisplay:10.37,2013-08-09 13:50:00,
2013-08-09 08:55:00,68.0,60.9,29.86,SSE,159,0.0,0.0,78,0.00,CLR,,0.00,WeatherDisplay:10.37,2013-08-09 13:55:00,
2013-08-09 09:00:00,68.3,61.5,29.86,SSE,159,0.0,0.0,79,0.00,CLR,,0.00,WeatherDisplay:10.37,2013-08-09 14:00:00,
2013-08-09 09:05:00,68.4,61.6,29.86,SSE,159,0.0,0.0,79,0.00,CLR,,0.00,WeatherDisplay:10.37,2013-08-09 14:05:00,
2013-08-09 09:10:00,68.8,61.7,29.86,SSE,159,0.0,0.0,78,0.00,CLR,,0.00,WeatherDisplay:10.37,2013-08-09 14:10:00,
2013-08-09 09:15:00,69.1,61.9,29.86,SSE,159,0.0,0.0,78,0.00,CLR,,0.00,WeatherDisplay:10.37,2013-08-09 14:15:00,
2013-08-09 09:20:00,69.4,62.2,29.86,SSE,159,0.0,0.0,78,0.00,CLR,,0.00,WeatherDisplay:10.37,2013-08-09 14:20:00,
2013-08-09 09:25:00,69.6,62.4,29.86,SSE,159,0.0,0.0,78,0.00,CLR,,0.00,WeatherDisplay:10.37,2013-08-09 14:25:00,
2013-08-09 09:30:00,69.8,62.6,29.86,SSE,159,0.0,0.0,78,0.00,CLR,,0.00,WeatherDisplay:10.37,2013-08-09 14:30:00,
2013-08-09 09:35:00,70.0,63.2,29.86,SSE,159,0.0,0.0,79,0.00,CLR,,0.00,WeatherDisplay:10.37,2013-08-09 14:35:00,
2013-08-09 09:40:00,70.4,63.6,29.86,SSE,159,0.0,0.0,79,0.00,CLR,,0.00,WeatherDisplay:10.37,2013-08-09 14:40:00,
2013-08-09 09:45:00,70.8,63.2,29.86,SSE,159,0.0,0.0,77,0.00,CLR,,0.00,WeatherDisplay:10.37,2013-08-09 14:45:00,
2013-08-09 09:50:00,71.1,63.1,29.86,SSE,159,0.0,0.0,76,0.00,CLR,,0.00,WeatherDisplay:10.37,2013-08-09 14:50:00,
2013-08-09 09:55:00,71.5,63.5,29.86,SSE,160,0.0,0.0,76,0.00,CLR,,0.00,WeatherDisplay:10.37,2013-08-09 14:55:00,
2013-08-09 10:00:00,72.0,63.6,29.86,SSE,160,0.0,0.0,75,0.00,CLR,,0.00,WeatherDisplay:10.37,2013-08-09 15:00:00,
2013-08-09 10:05:00,72.3,63.6,29.86,SSE,160,0.0,0.0,74,0.00,CLR,,0.00,WeatherDisplay:10.37,2013-08-09 15:05:00,
2013-08-09 10:10:00,72.8,62.8,29.86,SSE,163,0.0,0.0,71,0.00,CLR,,0.00,WeatherDisplay:10.37,2013-08-09 15:10:00,
2013-08-09 10:15:00,73.0,62.6,29.86,SSE,165,0.0,0.0,70,0.00,CLR,,0.00,WeatherDisplay:10.37,2013-08-09 15:15:00,
2013-08-09 10:20:00,73.2,63.2,29.87,SSE,165,0.0,0.0,71,0.00,CLR,,0.00,WeatherDisplay:10.37,2013-08-09 15:20:00,
2013-08-09 10:25:00,73.5,61.9,29.87,SSE,165,0.0,0.0,67,0.00,CLR,,0.00,WeatherDisplay:10.37,2013-08-09 15:25:00,
2013-08-09 10:30:00,73.3,61.7,29.87,SSE,165,0.0,0.0,67,0.00,CLR,,0.00,WeatherDisplay:10.37,2013-08-09 15:30:00,
2013-08-09 10:35:00,73.3,62.1,29.87,SSE,166,0.0,0.0,68,0.00,CLR,,0.00,WeatherDisplay:10.37,2013-08-09 15:35:00,
2013-08-09 10:40:00,73.3,62.5,29.87,North,351,0.0,0.0,69,0.00,CLR,,0.00,WeatherDisplay:10.37,2013-08-09 15:40:00,
2013-08-09 10:45:00,73.3,62.1,29.87,NNW,348,0.0,0.0,68,0.00,CLR,,0.00,WeatherDisplay:10.37,2013-08-09 15:45:00,
2013-08-09 10:50:00,73.0,61.4,29.87,NW,324,0.0,0.0,67,0.00,CLR,,0.00,WeatherDisplay:10.37,2013-08-09 15:50:00,
2013-08-09 10:55:00,72.8,61.6,29.87,WNW,288,0.0,0.0,68,0.00,CLR,,0.00,WeatherDisplay:10.37,2013-08-09 15:55:00,
2013-08-09 11:00:00,72.8,61.2,29.87,WNW,291,0.0,0.0,67,0.00,CLR,,0.00,WeatherDisplay:10.37,2013-08-09 16:00:00,
2013-08-09 11:05:00,72.8,61.2,29.87,WNW,301,0.0,0.0,67,0.00,CLR,,0.00,WeatherDisplay:10.37,2013-08-09 16:05:00,
2013-08-09 11:10:00,73.0,60.5,29.87,NW,307,0.0,0.0,65,0.00,CLR,,0.00,WeatherDisplay:10.37,2013-08-09 16:10:00,
2013-08-09 11:15:00,73.2,61.6,29.87,WSW,245,0.0,0.0,67,0.00,CLR,,0.00,WeatherDisplay:10.37,2013-08-09 16:15:00,
2013-08-09 11:20:00,73.5,62.3,29.88,WSW,239,0.0,0.0,68,0.00,CLR,,0.00,WeatherDisplay:10.37,2013-08-09 16:20:00,
2013-08-09 11:25:00,73.5,62.3,29.88,West,269,0.0,0.0,68,0.00,CLR,,0.00,WeatherDisplay:10.37,2013-08-09 16:25:00,
2013-08-09 11:30:00,73.7,62.5,29.88,West,273,0.0,0.0,68,0.00,CLR,,0.00,WeatherDisplay:10.37,2013-08-09 16:30:00,
2013-08-09 11:35:00,73.7,62.1,29.87,West,265,0.0,0.0,67,0.00,CLR,,0.00,WeatherDisplay:10.37,2013-08-09 16:35:00,
2013-08-09 11:40:00,73.9,62.2,29.87,WSW,258,0.0,0.0,67,0.00,CLR,,0.00,WeatherDisplay:10.37,2013-08-09 16:40:00,
2013-08-09 11:45:00,74.2,62.1,29.87,WSW,257,0.0,0.0,66,0.00,CLR,,0.00,WeatherDisplay:10.37,2013-08-09 16:45:00,
2013-08-09 11:50:00,74.2,62.5,29.87,West,261,0.0,0.0,67,0.00,CLR,,0.00,WeatherDisplay:10.37,2013-08-09 16:50:00,
2013-08-09 11:55:00,74.4,61.9,29.87,West,267,0.0,0.0,65,0.00,CLR,,0.00,WeatherDisplay:10.37,2013-08-09 16:55:00,
2013-08-09 12:00:00,74.4,62.7,29.87,NW,312,0.0,0.0,67,0.00,CLR,,0.00,WeatherDisplay:10.37,2013-08-09 17:00:00,
2013-08-09 12:05:00,74.4,61.9,29.86,NNW,347,0.0,2.0,65,0.00,CLR,,0.00,WeatherDisplay:10.37,2013-08-09 17:05:00,
2013-08-09 12:10:00,74.6,62.5,29.86,North,355,1.0,5.0,66,0.00,CLR,,0.00,WeatherDisplay:10.37,2013-08-09 17:10:00,
2013-08-09 12:15:00,74.6,62.5,29.86,North,5,1.0,4.0,66,0.00,CLR,,0.00,WeatherDisplay:10.37,2013-08-09 17:15:00,
2013-08-09 12:20:00,74.6,62.9,29.86,North,2,1.0,3.0,67,0.00,CLR,,0.00,WeatherDisplay:10.37,2013-08-09 17:20:00,
2013-08-09 12:25:00,74.7,62.1,29.86,NNW,341,0.0,3.0,65,0.00,CLR,,0.00,WeatherDisplay:10.37,2013-08-09 17:25:00,
2013-08-09 12:30:00,74.9,62.8,29.86,WNW,299,0.0,5.0,66,0.00,CLR,,0.00,WeatherDisplay:10.37,2013-08-09 17:30:00,
2013-08-09 12:35:00,75.1,63.4,29.85,NW,306,0.0,1.0,67,0.00,CLR,,0.00,WeatherDisplay:10.37,2013-08-09 17:35:00,
2013-08-09 12:40:00,75.2,63.9,29.85,NW,326,0.0,0.0,68,0.00,CLR,,0.00,WeatherDisplay:10.37,2013-08-09 17:40:00,
2013-08-09 12:45:00,75.3,63.6,29.85,NNW,328,1.0,2.0,67,0.00,CLR,,0.00,WeatherDisplay:10.37,2013-08-09 17:45:00,
2013-08-09 12:50:00,75.8,62.8,29.85,NNW,342,0.0,3.0,64,0.00,CLR,,0.00,WeatherDisplay:10.37,2013-08-09 17:50:00,
2013-08-09 12:55:00,75.8,61.8,29.85,NNW,339,1.0,3.0,62,0.00,CLR,,0.00,WeatherDisplay:10.37,2013-08-09 17:55:00,
2013-08-09 13:00:00,75.6,61.2,29.85,NNW,337,0.0,2.0,61,0.00,CLR,,0.00,WeatherDisplay:10.37,2013-08-09 18:00:00,
2013-08-09 13:05:00,75.4,61.0,29.85,NNW,345,0.0,4.0,61,0.00,CLR,,0.00,WeatherDisplay:10.37,2013-08-09 18:05:00,
2013-08-09 13:10:00,75.2,60.9,29.85,NNW,347,0.0,3.0,61,0.00,CLR,,0.00,WeatherDisplay:10.37,2013-08-09 18:10:00,
2013-08-09 13:15:00,75.4,63.2,29.85,NNW,339,1.0,3.0,66,0.00,CLR,,0.00,WeatherDisplay:10.37,2013-08-09 18:15:00,
2013-08-09 13:20:00,76.1,61.2,29.86,WNW,295,0.0,2.0,60,0.00,CLR,,0.00,WeatherDisplay:10.37,2013-08-09 18:20:00,
2013-08-09 13:25:00,76.7,61.3,29.86,West,277,0.0,4.0,59,0.00,CLR,,0.00,WeatherDisplay:10.37,2013-08-09 18:25:00,
2013-08-09 13:30:00,77.2,61.3,29.86,WNW,302,0.0,3.0,58,0.00,CLR,,0.00,WeatherDisplay:10.37,2013-08-09 18:30:00,
2013-08-09 13:35:00,77.6,62.6,29.86,WNW,294,0.0,3.0,60,0.00,CLR,,0.00,WeatherDisplay:10.37,2013-08-09 18:35:00,
2013-08-09 13:40:00,78.1,62.1,29.86,WSW,241,1.0,5.0,58,0.00,CLR,,0.00,WeatherDisplay:10.37,2013-08-09 18:40:00,
2013-08-09 13:45:00,78.3,60.8,29.86,West,280,0.0,4.0,55,0.00,CLR,,0.00,WeatherDisplay:10.37,2013-08-09 18:45:00,
2013-08-09 13:50:00,78.6,62.6,29.85,WSW,252,0.0,6.0,58,0.00,CLR,,0.00,WeatherDisplay:10.37,2013-08-09 18:50:00,
2013-08-09 13:55:00,78.9,61.3,29.85,SW,235,0.0,4.0,55,0.00,CLR,,0.00,WeatherDisplay:10.37,2013-08-09 18:55:00,
2013-08-09 14:00:00,77.6,61.6,29.85,NNW,345,1.0,5.0,58,0.00,CLR,,0.00,WeatherDisplay:10.37,2013-08-09 19:00:00,
2013-08-09 14:05:00,77.0,62.0,29.85,NNW,343,0.0,5.0,60,0.00,CLR,,0.00,WeatherDisplay:10.37,2013-08-09 19:05:00,
2013-08-09 14:10:00,76.3,61.4,29.85,North,350,0.0,5.0,60,0.00,CLR,,0.00,WeatherDisplay:10.37,2013-08-09 19:10:00,
2013-08-09 14:15:00,76.2,61.8,29.85,North,355,0.0,2.0,61,0.00,CLR,,0.00,WeatherDisplay:10.37,2013-08-09 19:15:00,
2013-08-09 14:20:00,76.2,60.4,29.86,NNW,341,0.0,4.0,58,0.00,CLR,,0.00,WeatherDisplay:10.37,2013-08-09 19:20:00,
2013-08-09 14:25:00,76.3,61.4,29.86,NNW,331,0.0,4.0,60,0.00,CLR,,0.00,WeatherDisplay:10.37,2013-08-09 19:25:00,
2013-08-09 14:30:00,76.7,62.2,29.86,North,351,0.0,5.0,61,0.00,CLR,,0.00,WeatherDisplay:10.37,2013-08-09 19:30:00,
2013-08-09 14:35:00,77.0,61.6,29.86,North,359,0.0,1.0,59,0.00,CLR,,0.00,WeatherDisplay:10.37,2013-08-09 19:35:00,
2013-08-09 14:40:00,76.8,60.9,29.86,NNW,336,0.0,0.0,58,0.00,CLR,,0.00,WeatherDisplay:10.37,2013-08-09 19:40:00,
2013-08-09 14:45:00,76.9,61.5,29.86,NNW,330,0.0,2.0,59,0.00,CLR,,0.00,WeatherDisplay:10.37,2013-08-09 19:45:00,
2013-08-09 14:50:00,77.2,59.8,29.85,NNW,346,0.0,4.0,55,0.00,CLR,,0.00,WeatherDisplay:10.37,2013-08-09 19:50:00,
2013-08-09 14:55:00,77.6,61.7,29.85,NNW,328,1.0,6.0,58,0.00,CLR,,0.00,WeatherDisplay:10.37,2013-08-09 19:55:00,
2013-08-09 15:00:00,77.9,60.4,29.85,NW,321,0.0,6.0,55,0.00,CLR,,0.00,WeatherDisplay:10.37,2013-08-09 20:00:00,
2013-08-09 15:05:00,78.3,58.7,29.85,WNW,289,0.0,3.0,51,0.00,CLR,,0.00,WeatherDisplay:10.37,2013-08-09 20:05:00,
2013-08-09 15:10:00,78.1,59.0,29.85,West,276,0.0,2.0,52,0.00,CLR,,0.00,WeatherDisplay:10.37,2013-08-09 20:10:00,
2013-08-09 15:20:00,77.9,59.4,29.85,NW,305,0.0,4.0,53,0.00,CLR,,0.00,WeatherDisplay:10.37,2013-08-09 20:20:00,
2013-08-09 15:25:00,78.3,59.2,29.85,WNW,296,0.0,4.0,52,0.00,CLR,,0.00,WeatherDisplay:10.37,2013-08-09 20:25:00,
2013-08-09 15:35:00,78.3,59.2,29.85,NNW,334,0.0,1.0,52,0.00,CLR,,0.00,WeatherDisplay:10.37,2013-08-09 20:35:00,
2013-08-09 15:40:00,77.9,59.9,29.85,NNW,335,0.0,4.0,54,0.00,CLR,,0.00,WeatherDisplay:10.37,2013-08-09 20:40:00,
2013-08-09 15:50:00,77.9,59.9,29.85,NNE,21,0.0,1.0,54,0.00,CLR,,0.00,WeatherDisplay:10.37,2013-08-09 20:50:00,
2013-08-09 16:00:00,77.9,59.4,29.85,NNW,327,1.0,2.0,53,0.00,CLR,,0.00,WeatherDisplay:10.37,2013-08-09 21:00:00,
2013-08-09 16:05:00,78.3,58.1,29.85,NNW,345,0.0,1.0,50,0.00,CLR,,0.00,WeatherDisplay:10.37,2013-08-09 21:05:00,
2013-08-09 16:10:00,78.3,56.4,29.85,North,351,0.0,1.0,47,0.00,CLR,,0.00,WeatherDisplay:10.37,2013-08-09 21:10:00,
2013-08-09 16:15:00,78.2,58.0,29.85,North,349,0.0,3.0,50,0.00,CLR,,0.00,WeatherDisplay:10.37,2013-08-09 21:15:00,
2013-08-09 16:20:00,78.3,60.8,29.86,North,351,1.0,9.0,55,0.00,CLR,,0.00,WeatherDisplay:10.37,2013-08-09 21:20:00,
2013-08-09 16:25:00,78.3,59.8,29.86,North,350,1.0,9.0,53,0.00,CLR,,0.00,WeatherDisplay:10.37,2013-08-09 21:25:00,
2013-08-09 16:30:00,78.3,59.7,29.86,NNW,347,0.0,1.0,53,0.00,CLR,,0.00,WeatherDisplay:10.37,2013-08-09 21:30:00,
2013-08-09 16:35:00,77.9,60.9,29.86,North,2,1.0,5.0,56,0.00,CLR,,0.00,WeatherDisplay:10.37,2013-08-09 21:35:00,
2013-08-09 16:40:00,77.7,60.2,29.86,North,355,1.0,6.0,55,0.00,CLR,,0.00,WeatherDisplay:10.37,2013-08-09 21:40:00,
2013-08-09 16:50:00,77.4,60.0,29.86,North,353,0.0,2.0,55,0.00,CLR,,0.00,WeatherDisplay:10.37,2013-08-09 21:50:00,
2013-08-09 16:55:00,77.2,60.8,29.86,North,358,2.0,6.0,57,0.00,CLR,,0.00,WeatherDisplay:10.37,2013-08-09 21:55:00,
2013-08-09 17:00:00,76.9,59.5,29.86,NNW,346,2.0,8.0,55,0.00,CLR,,0.00,WeatherDisplay:10.37,2013-08-09 22:00:00,
2013-08-09 17:05:00,76.8,59.4,29.86,NNW,342,3.0,8.0,55,0.00,CLR,,0.00,WeatherDisplay:10.37,2013-08-09 22:05:00,
2013-08-09 17:10:00,77.0,60.1,29.86,NNW,338,2.0,8.0,56,0.00,CLR,,0.00,WeatherDisplay:10.37,2013-08-09 22:10:00,
2013-08-09 17:15:00,77.0,60.1,29.86,NNW,341,2.0,9.0,56,0.00,CLR,,0.00,WeatherDisplay:10.37,2013-08-09 22:15:00,
2013-08-09 17:20:00,77.0,58.6,29.86,NNW,343,3.0,10.0,53,0.00,CLR,,0.00,WeatherDisplay:10.37,2013-08-09 22:20:00,
2013-08-09 17:25:00,77.2,59.3,29.86,North,352,2.0,10.0,54,0.00,CLR,,0.00,WeatherDisplay:10.37,2013-08-09 22:25:00,
2013-08-09 17:30:00,77.0,58.5,29.86,North,2,0.0,9.0,53,0.00,CLR,,0.00,WeatherDisplay:10.37,2013-08-09 22:30:00,
2013-08-09 17:35:00,76.8,58.9,29.86,North,2,2.0,4.0,54,0.00,CLR,,0.00,WeatherDisplay:10.37,2013-08-09 22:35:00,
2013-08-09 17:40:00,76.7,58.3,29.86,NNW,338,0.0,6.0,53,0.00,CLR,,0.00,WeatherDisplay:10.37,2013-08-09 22:40:00,
2013-08-09 17:45:00,76.3,57.9,29.86,NNW,339,0.0,4.0,53,0.00,CLR,,0.00,WeatherDisplay:10.37,2013-08-09 22:45:00,
2013-08-09 17:50:00,76.3,58.4,29.86,North,351,1.0,5.0,54,0.00,CLR,,0.00,WeatherDisplay:10.37,2013-08-09 22:50:00,
2013-08-09 17:55:00,76.3,57.9,29.86,NNW,345,1.0,6.0,53,0.00,CLR,,0.00,WeatherDisplay:10.37,2013-08-09 22:55:00,
2013-08-09 18:00:00,76.5,58.6,29.86,NNW,341,5.0,12.0,54,0.00,CLR,,0.00,WeatherDisplay:10.37,2013-08-09 23:00:00,
2013-08-09 18:05:00,76.5,57.0,29.86,NNW,335,0.0,8.0,51,0.00,CLR,,0.00,WeatherDisplay:10.37,2013-08-09 23:05:00,
2013-08-09 18:10:00,76.3,56.8,29.86,NNW,337,3.0,8.0,51,0.00,CLR,,0.00,WeatherDisplay:10.37,2013-08-09 23:10:00,
2013-08-09 18:15:00,76.0,57.1,29.86,NNW,342,2.0,9.0,52,0.00,CLR,,0.00,WeatherDisplay:10.37,2013-08-09 23:15:00,
2013-08-09 18:20:00,76.0,57.1,29.86,NNW,346,1.0,6.0,52,0.00,CLR,,0.00,WeatherDisplay:10.37,2013-08-09 23:20:00,
2013-08-09 18:25:00,75.8,58.0,29.86,NNW,344,1.0,4.0,54,0.00,CLR,,0.00,WeatherDisplay:10.37,2013-08-09 23:25:00,
2013-08-09 18:30:00,75.6,57.3,29.86,NNW,345,0.0,4.0,53,0.00,CLR,,0.00,WeatherDisplay:10.37,2013-08-09 23:30:00,
2013-08-09 18:35:00,75.6,57.8,29.86,North,357,1.0,8.0,54,0.00,CLR,,0.00,WeatherDisplay:10.37,2013-08-09 23:35:00,
2013-08-09 18:40:00,75.4,58.1,29.86,North,352,1.0,3.0,55,0.00,CLR,,0.00,WeatherDisplay:10.37,2013-08-09 23:40:00,
2013-08-09 18:45:00,75.1,58.3,29.86,NNW,346,1.0,3.0,56,0.00,CLR,,0.00,WeatherDisplay:10.37,2013-08-09 23:45:00,
2013-08-09 18:50:00,74.7,58.0,29.86,NNW,332,0.0,3.0,56,0.00,CLR,,0.00,WeatherDisplay:10.37,2013-08-09 23:50:00,
2013-08-09 18:55:00,74.6,58.4,29.86,NNW,330,0.0,3.0,57,0.00,CLR,,0.00,WeatherDisplay:10.37,2013-08-09 23:55:00,
2013-08-09 19:00:00,74.4,58.7,29.86,NNW,332,0.0,4.0,58,0.00,CLR,,0.00,WeatherDisplay:10.37,2013-08-10 00:00:00,
2013-08-09 19:05:00,74.4,58.7,29.88,NNW,342,0.0,0.0,58,0.00,CLR,,0.00,WeatherDisplay:10.37,2013-08-10 00:05:00,
2013-08-09 19:10:00,74.2,58.9,29.88,NNW,342,0.0,3.0,59,0.00,CLR,,0.00,WeatherDisplay:10.37,2013-08-10 00:10:00,
2013-08-09 19:15:00,74.0,59.2,29.88,NNW,341,0.0,2.0,60,0.00,CLR,,0.00,WeatherDisplay:10.37,2013-08-10 00:15:00,
2013-08-09 19:20:00,73.9,58.7,29.88,NNW,338,0.0,3.0,59,0.00,CLR,,0.00,WeatherDisplay:10.37,2013-08-10 00:20:00,
2013-08-09 19:25:00,73.7,58.5,29.88,NNW,339,0.0,3.0,59,0.00,CLR,,0.00,WeatherDisplay:10.37,2013-08-10 00:25:00,
2013-08-09 19:30:00,73.3,58.1,29.88,NNW,339,1.0,3.0,59,0.00,CLR,,0.00,WeatherDisplay:10.37,2013-08-10 00:30:00,
2013-08-09 19:35:00,73.1,58.4,29.88,NNW,339,0.0,1.0,60,0.00,CLR,,0.00,WeatherDisplay:10.37,2013-08-10 00:35:00,
2013-08-09 19:40:00,72.7,58.9,29.88,NNW,339,0.0,3.0,62,0.00,CLR,,0.00,WeatherDisplay:10.37,2013-08-10 00:40:00,
2013-08-09 19:45:00,72.1,58.4,29.88,NNW,339,0.0,0.0,62,0.00,CLR,,0.00,WeatherDisplay:10.37,2013-08-10 00:45:00,
2013-08-09 19:50:00,71.8,58.1,29.88,NNW,339,1.0,3.0,62,0.00,CLR,,0.00,WeatherDisplay:10.37,2013-08-10 00:50:00,
2013-08-09 19:55:00,71.6,57.9,29.88,NNW,338,0.0,4.0,62,0.00,CLR,,0.00,WeatherDisplay:10.37,2013-08-10 00:55:00,
2013-08-09 20:00:00,71.3,58.1,29.88,NNW,338,0.0,2.0,63,0.00,CLR,,0.00,WeatherDisplay:10.37,2013-08-10 01:00:00,
2013-08-09 20:05:00,71.0,57.8,29.88,NNW,338,0.0,4.0,63,0.00,CLR,,0.00,WeatherDisplay:10.37,2013-08-10 01:05:00,
2013-08-09 20:10:00,70.8,58.0,29.88,NNW,339,0.0,3.0,64,0.00,CLR,,0.00,WeatherDisplay:10.37,2013-08-10 01:10:00,
2013-08-09 20:15:00,70.3,58.0,29.88,North,353,0.0,0.0,65,0.00,CLR,,0.00,WeatherDisplay:10.37,2013-08-10 01:15:00,
2013-08-09 20:20:00,70.1,57.8,29.89,North,355,0.0,0.0,65,0.00,CLR,,0.00,WeatherDisplay:10.37,2013-08-10 01:20:00,
2013-08-09 20:25:00,69.9,58.0,29.89,North,353,0.0,0.0,66,0.00,CLR,,0.00,WeatherDisplay:10.37,2013-08-10 01:25:00,
2013-08-09 20:30:00,69.8,57.9,29.89,NNW,347,0.0,0.0,66,0.00,CLR,,0.00,WeatherDisplay:10.37,2013-08-10 01:30:00,
2013-08-09 20:35:00,69.4,58.0,29.90,NNW,334,0.0,0.0,67,0.00,CLR,,0.00,WeatherDisplay:10.37,2013-08-10 01:35:00,
2013-08-09 20:40:00,69.3,57.9,29.90,NNW,328,0.0,0.0,67,0.00,CLR,,0.00,WeatherDisplay:10.37,2013-08-10 01:40:00,
2013-08-09 20:45:00,69.3,57.9,29.90,NNW,329,0.0,0.0,67,0.00,CLR,,0.00,WeatherDisplay:10.37,2013-08-10 01:45:00,
2013-08-09 20:50:00,69.1,57.7,29.90,NNW,331,0.0,0.0,67,0.00,CLR,,0.00,WeatherDisplay:10.37,2013-08-10 01:50:00,
2013-08-09 20:55:00,68.9,57.5,29.90,NNW,332,0.0,0.0,67,0.00,CLR,,0.00,WeatherDisplay:10.37,2013-08-10 01:55:00,
2013-08-09 21:00:00,68.7,58.1,29.90,NNW,332,0.0,0.0,69,0.00,CLR,,0.00,WeatherDisplay:10.37,2013-08-10 02:00:00,
2013-08-09 21:05:00,68.3,58.5,29.91,NNW,332,0.0,0.0,71,0.00,CLR,,0.00,WeatherDisplay:10.37,2013-08-10 02:05:00,
2013-08-09 21:10:00,67.8,58.4,29.91,NNW,332,0.0,0.0,72,0.00,CLR,,0.00,WeatherDisplay:10.37,2013-08-10 02:10:00,
2013-08-09 21:15:00,67.3,58.7,29.91,NNW,332,0.0,0.0,74,0.00,CLR,,0.00,WeatherDisplay:10.37,2013-08-10 02:15:00,
2013-08-09 21:20:00,66.9,58.7,29.91,NNW,332,0.0,0.0,75,0.00,CLR,,0.00,WeatherDisplay:10.37,2013-08-10 02:20:00,
2013-08-09 21:25:00,66.5,58.7,29.91,NNW,332,0.0,0.0,76,0.00,CLR,,0.00,WeatherDisplay:10.37,2013-08-10 02:25:00,
2013-08-09 21:30:00,66.0,58.6,29.91,NNW,332,0.0,0.0,77,0.00,CLR,,0.00,WeatherDisplay:10.37,2013-08-10 02:30:00,
2013-08-09 21:35:00,65.6,58.2,29.91,NNW,332,0.0,0.0,77,0.00,CLR,,0.00,WeatherDisplay:10.37,2013-08-10 02:35:00,
2013-08-09 21:40:00,65.3,57.9,29.91,NNW,332,0.0,0.0,77,0.00,CLR,,0.00,WeatherDisplay:10.37,2013-08-10 02:40:00,
2013-08-09 21:45:00,65.2,57.8,29.91,NNW,332,0.0,0.0,77,0.00,CLR,,0.00,WeatherDisplay:10.37,2013-08-10 02:45:00,
2013-08-09 21:50:00,65.2,57.8,29.92,NNW,332,0.0,0.0,77,0.00,CLR,,0.00,WeatherDisplay:10.37,2013-08-10 02:50:00,
2013-08-09 21:55:00,65.0,57.6,29.92,NNW,332,0.0,0.0,77,0.00,CLR,,0.00,WeatherDisplay:10.37,2013-08-10 02:55:00,
2013-08-09 22:00:00,65.0,57.6,29.92,NNW,332,0.0,0.0,77,0.00,CLR,,0.00,WeatherDisplay:10.37,2013-08-10 03:00:00,
2013-08-09 22:05:00,64.7,57.7,29.92,NNW,332,0.0,0.0,78,0.00,CLR,,0.00,WeatherDisplay:10.37,2013-08-10 03:05:00,
2013-08-09 22:10:00,64.3,57.6,29.92,NNW,332,0.0,0.0,79,0.00,CLR,,0.00,WeatherDisplay:10.37,2013-08-10 03:10:00,
2013-08-09 22:15:00,64.0,57.7,29.92,NNW,332,0.0,0.0,80,0.00,CLR,,0.00,WeatherDisplay:10.37,2013-08-10 03:15:00,
2013-08-09 22:20:00,63.7,57.4,29.92,NNW,332,0.0,0.0,80,0.00,CLR,,0.00,WeatherDisplay:10.37,2013-08-10 03:20:00,
2013-08-09 22:25:00,63.2,57.3,29.92,NNW,332,0.0,0.0,81,0.00,CLR,,0.00,WeatherDisplay:10.37,2013-08-10 03:25:00,
2013-08-09 22:30:00,62.9,57.7,29.92,NNW,332,0.0,0.0,83,0.00,CLR,,0.00,WeatherDisplay:10.37,2013-08-10 03:30:00,
2013-08-09 22:35:00,62.6,57.4,29.93,NNW,332,0.0,0.0,83,0.00,CLR,,0.00,WeatherDisplay:10.37,2013-08-10 03:35:00,
2013-08-09 22:40:00,62.3,57.1,29.93,NNW,332,0.0,0.0,83,0.00,CLR,,0.00,WeatherDisplay:10.37,2013-08-10 03:40:00,
2013-08-09 22:45:00,62.0,57.1,29.93,NNW,332,0.0,0.0,84,0.00,CLR,,0.00,WeatherDisplay:10.37,2013-08-10 03:45:00,
2013-08-09 22:50:00,61.6,56.7,29.93,NNW,332,0.0,0.0,84,0.00,CLR,,0.00,WeatherDisplay:10.37,2013-08-10 03:50:00,
2013-08-09 22:55:00,61.4,56.5,29.93,NNW,332,0.0,0.0,84,0.00,CLR,,0.00,WeatherDisplay:10.37,2013-08-10 03:55:00,
2013-08-09 23:00:00,61.2,56.3,29.93,NNW,332,0.0,0.0,84,0.00,CLR,,0.00,WeatherDisplay:10.37,2013-08-10 04:00:00,
2013-08-09 23:05:00,61.0,56.1,29.93,NNW,332,0.0,0.0,84,0.00,CLR,,0.00,WeatherDisplay:10.37,2013-08-10 04:05:00,
2013-08-09 23:10:00,60.7,55.8,29.93,NNW,332,0.0,0.0,84,0.00,CLR,,0.00,WeatherDisplay:10.37,2013-08-10 04:10:00,
2013-08-09 23:15:00,60.5,55.6,29.93,NNW,332,0.0,0.0,84,0.00,CLR,,0.00,WeatherDisplay:10.37,2013-08-10 04:15:00,
2013-08-09 23:20:00,60.4,55.5,29.93,NNW,332,0.0,0.0,84,0.00,CLR,,0.00,WeatherDisplay:10.37,2013-08-10 04:20:00,
2013-08-09 23:25:00,60.1,55.6,29.93,NNW,332,0.0,0.0,85,0.00,CLR,,0.00,WeatherDisplay:10.37,2013-08-10 04:25:00,
2013-08-09 23:30:00,59.9,55.4,29.93,NNW,332,0.0,0.0,85,0.00,CLR,,0.00,WeatherDisplay:10.37,2013-08-10 04:30:00,
2013-08-09 23:35:00,59.8,55.3,29.94,NNW,332,0.0,0.0,85,0.00,CLR,,0.00,WeatherDisplay:10.37,2013-08-10 04:35:00,
2013-08-09 23:40:00,59.6,55.1,29.94,NNW,332,0.0,0.0,85,0.00,CLR,,0.00,WeatherDisplay:10.37,2013-08-10 04:40:00,
2013-08-09 23:45:00,59.5,55.3,29.94,NNW,332,0.0,0.0,86,0.00,CLR,,0.00,WeatherDisplay:10.37,2013-08-10 04:45:00,
2013-08-09 23:50:00,59.3,55.1,29.94,NNW,332,0.0,0.0,86,0.00,CLR,,0.00,WeatherDisplay:10.37,2013-08-10 04:50:00,
2013-08-09 23:55:00,59.0,55.2,29.94,NNW,332,0.0,0.0,87,0.00,CLR,,0.00,WeatherDisplay:10.37,2013-08-10 04:55:00,